SB KEPS @ AMSAT $ORB07168.N 2Line Orbital Elements 07168.AMSAT
HR AMSAT ORBITAL ELEMENTS FOR AMATEUR SATELLITES IN NASA FORMAT FROM WA5QGD FORT WORTH,TX June 17, 2007 Send SUBSCRIBE KEPS/UNSUBSCRIBE KEPS to [email protected] only BID: ORB07168.N
DECODE 2-LINE ELSETS WITH THE FOLLOWING KEY: 1 AAAAAU 00 0 0 BBBBB.BBBBBBBB .CCCCCCCC 00000-0 00000-0 0 DDDZ 2 AAAAA EEE.EEEE FFF.FFFF GGGGGGG HHH.HHHH III.IIII JJ.JJJJJJJJKKKKKZ KEY: A-CATALOGNUM B-EPOCHTIME C-DECAY D-ELSETNUM E-INCLINATION F-RAAN G-ECCENTRICITY H-ARGPERIGEE I-MNANOM J-MNMOTION K-ORBITNUM Z-CHECKSUM
TO ALL RADIO AMATEURS BT
AO-07 1 07530U 74089B 07168.54051129 -.00000028 00000-0 10000-3 0 9032 2 07530 101.5132 206.5383 0011713 255.7073 104.2703 12.53572486491160 AO-10 1 14129U 83058B 07165.62815902 -.00000232 00000-0 10000-3 0 3876 2 14129 026.4610 271.9596 6063632 030.5340 353.6982 02.05870064180511 UO-11 1 14781U 84021B 07168.05538376 .00000249 00000-0 40532-4 0 3981 2 14781 098.1882 190.7540 0009152 165.2317 194.9149 14.79560797249712 RS-15 1 23439U 94085A 07167.53931679 -.00000039 00000-0 10597-3 0 383 2 23439 064.8206 007.9667 0159562 190.8476 168.8990 11.27551728513624 FO-29 1 24278U 96046B 07168.50038226 -.00000027 00000-0 53192-5 0 5278 2 24278 098.5525 128.1059 0351520 082.4879 281.6042 13.52930861534945 SO-33 1 25509U 98061B 07168.54509737 -.00000042 00000-0 -18921-4 0 9530 2 25509 031.4287 223.7174 0354218 070.5856 293.2716 14.28169484451308 AO-40 1 26609U 00072B 07168.33758704 -.00000248 00000-0 10000-3 0 8900 2 26609 005.6315 139.4761 7984008 329.7388 001.8370 01.25587731 30441 VO-52 1 28650U 05017B 07168.37927133 .00000489 00000-0 69121-4 0 6532 2 28650 097.8321 239.0928 0026069 252.3435 107.4911 14.81328082114447 PO-63 1 29712U 07001D 07168.71827253 .00000667 00000-0 95559-4 0 4627 2 29712 097.9212 227.8703 0015458 124.0645 236.2031 14.79729030 23416 AO-16 1 20439U 90005D 07168.57980201 .00000008 00000-0 18260-4 0 604 2 20439 098.1947 163.1137 0010427 180.9887 179.1285 14.31762790908601 LO-19 1 20442U 90005G 07167.57010388 -.00000072 00000-0 -11642-4 0 9864 2 20442 098.1784 171.5118 0011650 182.9961 177.1134 14.32002970908609 AO-27 1 22825U 93061C 07168.33808757 .00000012 00000-0 21149-4 0 7094 2 22825 098.3294 138.2119 0007421 262.9174 097.1172 14.29210988715516 IO-26 1 22826U 93061D 07167.96540306 -.00000009 00000-0 12817-4 0 4069 2 22826 098.3230 138.9266 0007967 261.8996 098.1281 14.29457129715547 PO-28 1 22829U 93061G 07167.99148084 -.00000047 00000-0 -21087-5 0 6843 2 22829 098.3113 140.1185 0008840 230.9691 129.0695 14.30157293715785 GO-32 1 25397U 98043D 07168.23045346 .00000072 00000-0 50097-4 0 3278 2 25397 098.4129 215.4421 0000785 178.4052 181.7118 14.23127311464160 MO-46 1 26548U 00057D 07167.50973744 .00000086 00000-0 28457-4 0 8215 2 26548 064.5545 184.7604 0015649 196.9409 163.1172 14.83150718363437 NO-44 1 26931U 01043C 07167.45867640 .00000200 00000-0 11034-3 0 6115 2 26931 067.0496 149.3649 0007611 265.6725 094.3507 14.29488355297992 SO-50 1 27607U 02058C 07167.78342155 .00000084 00000-0 35221-4 0 3367 2 27607 064.5587 086.2601 0054026 000.0541 000.0567 14.71266719241064 CO-55 1 27844U 03031E 07167.75220052 .00000049 00000-0 43120-4 0 523 2 27844 098.7174 176.0589 0010989 091.8321 268.4107 14.20516805205412 CO-57 1 27848U 03031J 07168.54761767 .00000062 00000-0 49109-4 0 122 2 27848 098.7173 176.0393 0010790 092.1018 268.1395 14.20335578205507 AO-51 1 28375U 04025K 07168.15145350 .00000030 00000-0 21760-4 0 8400 2 28375 098.1118 207.4717 0083280 182.1106 177.9741 14.40571254155700 CO-56 1 28941U 06005C 07168.90813156 .00006551 25335-5 74016-4 0 4739 2 28941 098.1273 230.0817 0223906 270.4349 087.1255 15.39970164 73540 HO-59 1 29484U 06041F 07168.68720707 .00015457 27228-5 11091-3 0 4209 2 29484 098.2831 218.5390 0205430 263.9720 093.8068 15.51343576 41156 NO-60 1 29661U 06055C 07150.05824307 .13324117 12618-4 10400-3 0 3000 2 29661 051.6186 176.5045 0007204 190.7749 188.7342 16.52052832 25544 NO-61 1 29664U 06055F 07168.61487670 .00027787 11453-4 92566-4 0 2213 2 29664 051.6320 090.1690 0012007 353.9459 006.1332 15.91714774 28224 CP4 1 31122U 07012F 07168.66989096 .00000598 00000-0 14251-3 0 612 2 31122 098.0847 241.9321 0086356 024.6800 335.8452 14.55011997 8928 CP3 1 31128U 07012M 07168.18343071 -.00000047 00000-0 00000 0 0 547 2 31128 098.0869 241.1617 0103307 026.7326 333.9169 14.51840357 8829 LIBERT 1 31129U 07012N 07168.66227903 .00000385 00000-0 10000-3 0 1591 2 31129 098.0825 241.6233 0103385 024.8032 335.8049 14.51931131 8874 NOAA-10 1 16969U 86073A 07168.51341116 -.00000024 00000-0 83446-5 0 6948 2 16969 098.7438 185.6961 0012569 162.6023 197.5602 14.27327447 79277 NOAA-11 1 19531U 88089A 07168.27299087 -.00000150 00000-0 -54748-4 0 6928 2 19531 098.8124 257.4351 0012127 034.6508 325.5428 14.14846445966167 NOAA-12 1 21263U 91032A 07168.37332255 .00000293 00000-0 14273-3 0 1896 2 21263 098.7508 165.6133 0013811 105.9811 254.2915 14.25537083836279 MET-3/5 1 21655U 91056A 07168.85611826 .00000051 00000-0 10000-3 0 2802 2 21655 082.5558 002.4727 0012498 202.4854 157.5722 13.17011530761493 MET-2/21 1 22782U 93055A 07168.51364587 .00000099 00000-0 76498-4 0 8528 2 22782 082.5483 041.6578 0021002 233.6669 126.2545 13.83618169696567 OKEAN-4 1 23317U 94066A 07168.78764523 .00000113 00000-0 11094-4 0 2914 2 23317 082.5392 295.9718 0020498 249.4663 110.4370 14.82511140684141 NOAA-14 1 23455U 94089A 07168.43335003 .00000074 00000-0 62843-4 0 6717 2 23455 098.9889 234.6201 0010445 100.0393 260.1945 14.13721945642679 SICH-1 1 23657U 95046A 07168.42352743 .00000149 00000-0 16022-4 0 922 2 23657 082.5289 077.2595 0022220 241.6364 118.2603 14.81492695636069 NOAA-15 1 25338U 98030A 07168.38244453 .00000191 00000-0 10034-3 0 337 2 25338 098.5282 165.0590 0011227 034.0194 326.1730 14.24648881472716 RESURS 1 25394U 98043A 07168.55972585 -.00000005 00000-0 16169-4 0 6669 2 25394 098.4383 223.0741 0001323 148.5885 211.5374 14.24138455464405 FENGYUN1 1 25730U 99025A 07166.50165944 .00000620 00000-0 39164-3 0 1431 2 25730 098.6858 150.4312 0021672 129.8613 230.4453 14.07528236417233 OKEAN-0 1 25860U 99039A 07168.57152369 .00000065 00000-0 17292-4 0 796 2 25860 097.7296 170.8024 0001781 052.7867 307.3498 14.73458870425559 NOAA-16 1 26536U 00055A 07168.47311646 .00000144 00000-0 10310-3 0 4471 2 26536 099.1151 145.4194 0010621 167.8411 192.2993 14.12434476347146 NOAA-17 1 27453U 02032A 07168.44847727 .00000239 00000-0 12297-3 0 4570 2 27453 098.5798 237.7439 0012877 094.4600 265.8078 14.23887732258750 NOAA-18 1 28654U 05018A 07168.46597686 .00000350 00000-0 21844-3 0 9936 2 28654 098.8289 109.7446 0013327 268.1143 091.8505 14.11072735106896 HUBBLE 1 20580U 90037B 07168.20766217 .00000365 00000-0 15461-4 0 8979 2 20580 028.4682 189.9951 0003631 103.5893 256.5100 15.00252048739961 UARS 1 21701U 91063B 07167.89328654 .00006168 00000-0 10519-3 0 931 2 21701 056.9747 315.2153 0092083 187.9142 172.0467 15.48266888865704 PO-34 1 25520U 98064B 07168.89896526 .00000492 00000-0 14496-4 0 7582 2 25520 028.4592 103.9869 0005393 259.7630 100.2352 15.17010769477631 ISS 1 25544U 98067A 07168.95487691 .00014738 00000-0 87516-4 0 4136 2 25544 051.6350 099.9358 0007781 333.2178 149.5394 15.78264740490894 OO-38 1 26063U 00004C 07168.03019181 .00000000 00000-0 20332-4 0 9361 2 26063 100.2267 170.6234 0036885 159.5711 200.6955 14.35808351387024 UWE-1 1 28892U 05043C 07168.76013440 .00000234 00000-0 58963-4 0 7743 2 28892 098.1324 065.3947 0018399 109.0632 251.2562 14.59514109 87291 CO-58 1 28895U 05043F 07168.73878808 .00000082 00000-0 26992-4 0 7535 2 28895 098.1345 065.5851 0018917 109.3440 250.9825 14.59560353 87176 NCUBE2 1 28897U 05043H 07168.19661137 .00000130 00000-0 36907-4 0 2785 2 28897 098.1322 065.0101 0017944 111.6838 248.6271 14.59722931 79376 NMARS 1 29662U 06055D 07126.39603970 .07031946 12599-4 11450-3 0 2632 2 29662 051.6121 302.3682 0004459 252.1654 110.7411 16.47981436 21652 FCAL 1 29667U 06055J 07168.20230590 .00015240 11139-4 65988-4 0 1701 2 29667 051.6334 094.2144 0013889 352.1028 007.9755 15.88235382 28006 FALCON 1 30776U 07006E 07168.51956181 .00000267 00000-0 22679-4 0 754 2 30776 035.4334 210.6487 0000591 050.1850 309.8918 15.02723175 15107 MAST 1 31126U 07012K 07168.12039198 .00000394 00000-0 10000-3 0 584 2 31126 098.0839 241.2407 0095654 026.3619 334.2388 14.53347091 8846 CAPE1 1 31130U 07012P 07168.18269487 .00000149 00000-0 45510-4 0 461 2 31130 098.0857 241.1603 0103278 026.7860 333.8640 14.51859600 8615 /EX
participants (1)
-
Ray Hoad